DL3CK-10 Weather Reports


time (UTC)temp
C
wind
direction
speed
KPH
gust
KPH
rain 1hr
cm
rain 24hr
cm
rain mn
cm
humidity
%
barometer
mb
20260507092820 12 270 0.0 0.0 0.00 0.00 0.00 73 1010.9
20260507082820 12 270 0.0 0.0 0.00 0.00 0.00 73 1010.3
20260507072820 12 270 0.0 0.0 0.00 0.00 0.00 72 1009.8
20260507062820 11 247 0.0 0.0 0.00 0.00 0.00 75 1009.2
20260507052820 10 225 0.0 0.0 0.00 0.00 0.00 78 1008.8
20260507042820 9 292 0.0 0.0 0.00 0.00 0.00 78 1008.0
20260507032820 8 292 0.0 0.0 0.00 0.00 0.00 78 1007.9
20260507022821 10 292 0.0 0.0 0.00 0.00 0.00 76 1007.6
20260507012821 10 292 0.0 0.0 0.00 0.00 0.00 76 1007.3
20260507002821 10 292 0.0 0.0 0.00 0.00 0.00 75 1007.0
20260506232821 11 292 0.0 0.0 0.00 0.00 0.00 74 1007.0
20260506222821 12 292 0.0 0.0 0.00 0.00 0.00 74 1006.9
20260506212821 12 292 0.0 0.0 0.00 0.00 0.00 74 1006.3
20260506202821 12 292 0.0 0.0 0.00 0.00 0.00 75 1005.8
20260506192821 13 270 0.0 0.0 0.00 0.00 0.00 73 1005.2
20260506151504 20 90 0.0 0.0 0.00 0.00 0.00 54 1001.6
20260506141504 22 90 0.0 0.0 0.00 0.00 0.00 46 1001.4
20260506131504 23 90 0.0 0.0 0.00 0.00 0.00 46 1001.7
20260506121504 23 90 0.0 0.0 0.00 0.00 0.00 49 1002.4
20260506111504 22 67 0.0 0.0 0.00 0.00 0.00 51 1003.0
20260506101504 20 315 0.0 0.0 0.00 0.00 0.00 56 1003.7